When you browse on this site, cookies collect data to enhance your experience and personalize the content and advertising you see.
Visit our Privacy Policy to learn more. By continuing to use the site, you agree to this use of cookies and data.
  • In Switzerland
  • List of Countries
  • For 7 days
  • Water Temperature
  • Weather Map
  • Weather Widgets
  • user-avatar
    Login

    Hourly Weather Prutz

    Today, 18 October, Friday

    Time Temperature Precipitation Wind Pressure Humidity
    00:00 +6°C° 0 mm 1 mps 632 mmHg 88%
    01:00 +6°C° 0 mm 1 mps 633 mmHg 87%
    02:00 +6°C° 0 mm 1 mps 632 mmHg 86%
    03:00 +5°C° 0 mm 1 mps 632 mmHg 86%
    04:00 +5°C° 0 mm 1 mps 632 mmHg 86%
    05:00 +5°C° 0 mm 1 mps 632 mmHg 85%
    06:00 +5°C° 0 mm 1 mps 632 mmHg 84%
    07:00 +5°C° 0 mm 1 mps 632 mmHg 84%
    08:00 +7°C° 0 mm 1 mps 632 mmHg 78%
    09:00 +9°C° 0 mm 1 mps 633 mmHg 73%
    10:00 +11°C° 0 mm 1 mps 633 mmHg 67%
    11:00 +11°C° 0 mm 1 mps 633 mmHg 66%
    12:00 +12°C° 0 mm 1 mps 633 mmHg 65%
    13:00 +13°C° 0 mm 1 mps 633 mmHg 64%
    14:00 +12°C° 0 mm 1 mps 633 mmHg 66%
    15:00 +12°C° 0 mm 1 mps 633 mmHg 69%
    16:00 +12°C° 0 mm 1 mps 633 mmHg 71%
    17:00 +10°C° 0 mm 1 mps 632 mmHg 77%
    18:00 +9°C° 0 mm 1 mps 632 mmHg 83%
    19:00 +7°C° 0 mm 1 mps 631 mmHg 89%
    20:00 +6°C° 0 mm 2 mps 632 mmHg 89%
    21:00 +6°C° 0 mm 2 mps 632 mmHg 90%
    22:00 +6°C° 0 mm 2 mps 632 mmHg 90%
    23:00 +5°C° 0 mm 2 mps 631 mmHg 90%

    Tomorrow, 19 October, Saturday

    Time Temperature Precipitation Wind Pressure Humidity
    00:00 +5°C° 0 mm 2 mps 631 mmHg 90%
    01:00 +5°C° 0 mm 2 mps 631 mmHg 90%
    02:00 +5°C° 0 mm 2 mps 630 mmHg 91%
    03:00 +5°C° 0 mm 2 mps 630 mmHg 91%
    04:00 +4°C° 0 mm 3 mps 630 mmHg 92%
    05:00 +4°C° 0 mm 3 mps 630 mmHg 92%
    06:00 +4°C° 0 mm 3 mps 630 mmHg 92%
    07:00 +4°C° 0 mm 3 mps 630 mmHg 93%
    08:00 +7°C° 0 mm 3 mps 630 mmHg 89%
    09:00 +8°C° 0 mm 3 mps 631 mmHg 85%
    10:00 +9°C° 0 mm 3 mps 631 mmHg 80%
    11:00 +10°C° 0 mm 3 mps 631 mmHg 78%
    12:00 +11°C° 0 mm 3 mps 632 mmHg 75%
    13:00 +12°C° 0 mm 3 mps 632 mmHg 73%
    14:00 +11°C° 0 mm 3 mps 632 mmHg 75%
    15:00 +11°C° 0 mm 3 mps 631 mmHg 78%
    16:00 +10°C° 0 mm 3 mps 631 mmHg 80%
    17:00 +9°C° 0 mm 3 mps 631 mmHg 84%
    18:00 +8°C° 0 mm 3 mps 631 mmHg 88%
    19:00 +7°C° 0 mm 3 mps 631 mmHg 91%
    20:00 +7°C° 0 mm 3 mps 631 mmHg 91%
    21:00 +7°C° 0 mm 3 mps 631 mmHg 91%
    22:00 +7°C° 0 mm 3 mps 631 mmHg 91%
    23:00 +7°C° 0 mm 3 mps 631 mmHg 91%

    Day after tomorrow, 20 October, Sunday

    Time Temperature Precipitation Wind Pressure Humidity
    00:00 +7°C° 0 mm 3 mps 631 mmHg 91%
    01:00 +7°C° 0 mm 3 mps 631 mmHg 91%
    02:00 +7°C° 0 mm 3 mps 631 mmHg 92%
    03:00 +6°C° 0 mm 4 mps 631 mmHg 92%
    04:00 +6°C° 0 mm 4 mps 630 mmHg 92%
    05:00 +6°C° 0 mm 4 mps 630 mmHg 91%
    06:00 +6°C° 0 mm 4 mps 630 mmHg 91%
    07:00 +6°C° 0 mm 4 mps 630 mmHg 91%
    08:00 +8°C° 0 mm 4 mps 631 mmHg 85%
    09:00 +10°C° 0 mm 4 mps 632 mmHg 80%
    10:00 +12°C° 0 mm 4 mps 632 mmHg 75%
    11:00 +12°C° 0 mm 4 mps 632 mmHg 72%
    12:00 +13°C° 0 mm 4 mps 632 mmHg 69%
    13:00 +13°C° 0 mm 4 mps 632 mmHg 66%
    14:00 +13°C° 0 mm 4 mps 632 mmHg 70%
    15:00 +12°C° 0 mm 4 mps 631 mmHg 73%
    16:00 +11°C° 0 mm 4 mps 631 mmHg 77%
    17:00 +11°C° 0 mm 4 mps 631 mmHg 81%
    18:00 +10°C° 0 mm 4 mps 631 mmHg 85%
    19:00 +8°C° 0 mm 4 mps 631 mmHg 89%
    20:00 +8°C° 0 mm 4 mps 631 mmHg 89%
    21:00 +7°C° 0 mm 4 mps 631 mmHg 89%
    22:00 +7°C° 0 mm 4 mps 632 mmHg 89%
    23:00 +7°C° 0.1 mm 4 mps 632 mmHg 89%

    21 October, Monday

    Time Temperature Precipitation Wind Pressure Humidity
    00:00 +7°C° 0.1 mm 4 mps 632 mmHg 90%
    01:00 +7°C° 0.1 mm 4 mps 632 mmHg 90%
    02:00 +8°C° 0.1 mm 3 mps 632 mmHg 90%
    03:00 +8°C° 0.1 mm 3 mps 633 mmHg 90%
    04:00 +8°C° 0.1 mm 3 mps 633 mmHg 91%
    05:00 +8°C° 0 mm 3 mps 633 mmHg 91%
    06:00 +8°C° 0 mm 3 mps 634 mmHg 92%
    07:00 +8°C° 0 mm 3 mps 634 mmHg 92%
    08:00 +9°C° 0 mm 2 mps 635 mmHg 88%
    09:00 +10°C° 0 mm 2 mps 636 mmHg 84%
    10:00 +12°C° 0 mm 2 mps 636 mmHg 80%
    11:00 +12°C° 0.1 mm 2 mps 637 mmHg 82%
    12:00 +12°C° 0.1 mm 2 mps 637 mmHg 84%
    13:00 +12°C° 0.1 mm 2 mps 637 mmHg 86%
    14:00 +10°C° 0.2 mm 2 mps 637 mmHg 89%
    15:00 +11°C° 0.2 mm 1 mps 637 mmHg 91%
    16:00 +10°C° 0.2 mm 1 mps 636 mmHg 94%
    17:00 +10°C° 0.2 mm 1 mps 637 mmHg 95%
    18:00 +9°C° 0.2 mm 1 mps 637 mmHg 96%
    19:00 +9°C° 0.2 mm 1 mps 637 mmHg 96%
    20:00 +9°C° 0.1 mm 1 mps 637 mmHg 96%
    21:00 +9°C° 0.1 mm 1 mps 637 mmHg 96%
    22:00 +9°C° 0.1 mm 1 mps 637 mmHg 96%
    23:00 +9°C° 0 mm 1 mps 637 mmHg 96%

    22 October, Tuesday

    Time Temperature Precipitation Wind Pressure Humidity
    00:00 +9°C° 0 mm 1 mps 637 mmHg 96%
    01:00 +8°C° 0 mm 2 mps 638 mmHg 95%
    02:00 +8°C° 0 mm 2 mps 637 mmHg 95%
    03:00 +8°C° 0 mm 2 mps 637 mmHg 94%
    04:00 +8°C° 0 mm 2 mps 637 mmHg 93%
    05:00 +8°C° 0 mm 2 mps 637 mmHg 93%
    06:00 +8°C° 0 mm 2 mps 637 mmHg 93%
    07:00 +8°C° 0 mm 2 mps 638 mmHg 92%
    08:00 +9°C° 0 mm 2 mps 638 mmHg 87%
    09:00 +12°C° 0 mm 2 mps 639 mmHg 83%
    10:00 +14°C° 0 mm 2 mps 639 mmHg 78%
    11:00 +15°C° 0 mm 2 mps 639 mmHg 72%
    12:00 +16°C° 0 mm 2 mps 640 mmHg 67%
    13:00 +17°C° 0 mm 2 mps 640 mmHg 61%
    14:00 +16°C° 0 mm 2 mps 639 mmHg 64%
    15:00 +16°C° 0 mm 2 mps 639 mmHg 66%
    16:00 +15°C° 0 mm 2 mps 638 mmHg 69%
    17:00 +14°C° 0 mm 2 mps 638 mmHg 72%
    18:00 +12°C° 0 mm 2 mps 637 mmHg 76%
    19:00 +9°C° 0 mm 2 mps 637 mmHg 79%
    20:00 +9°C° 0 mm 3 mps 637 mmHg 81%
    21:00 +9°C° 0 mm 3 mps 637 mmHg 82%
    22:00 +9°C° 0 mm 3 mps 637 mmHg 83%
    23:00 +8°C° 0 mm 3 mps 636 mmHg 83%

    23 October, Wednesday

    Time Temperature Precipitation Wind Pressure Humidity
    00:00 +8°C° 0 mm 3 mps 636 mmHg 82%
    01:00 +8°C° 0 mm 3 mps 636 mmHg 82%
    02:00 +8°C° 0 mm 3 mps 636 mmHg 80%
    03:00 +7°C° 0 mm 3 mps 635 mmHg 78%
    04:00 +7°C° 0 mm 3 mps 635 mmHg 76%
    05:00 +7°C° 0 mm 3 mps 635 mmHg 73%
    06:00 +7°C° 0 mm 3 mps 635 mmHg 71%
    07:00 +7°C° 0 mm 3 mps 635 mmHg 68%
    08:00 +9°C° 0 mm 3 mps 635 mmHg 62%
    09:00 +12°C° 0 mm 3 mps 636 mmHg 56%
    10:00 +14°C° 0 mm 3 mps 636 mmHg 50%
    11:00 +16°C° 0 mm 3 mps 637 mmHg 47%
    12:00 +17°C° 0 mm 3 mps 637 mmHg 44%
    13:00 +18°C° 0 mm 3 mps 637 mmHg 41%
    14:00 +17°C° 0 mm 2 mps 636 mmHg 45%
    15:00 +16°C° 0 mm 2 mps 636 mmHg 49%
    16:00 +16°C° 0 mm 2 mps 635 mmHg 54%
    17:00 +14°C° 0 mm 2 mps 635 mmHg 59%
    18:00 +11°C° 0 mm 3 mps 634 mmHg 63%
    19:00 +9°C° 0 mm 3 mps 634 mmHg 68%
    20:00 +9°C° 0 mm 3 mps 634 mmHg 70%
    21:00 +9°C° 0 mm 3 mps 634 mmHg 72%
    22:00 +8°C° 0 mm 3 mps 634 mmHg 74%
    23:00 +8°C° 0 mm 3 mps 634 mmHg 73%
    Show more